sat.trackr.live / text

‹ back to catalog

GUOWANG TEST OBJECT D

NORAD 69323 · 2026-120D

PAYLOAD ACTIVE UNKNOWN

§ Identity

Operator
Country
PRC
Launch date
2026-05-30
Launch site
XICLF
Launch vehicle
Mass (kg)
RCS (m²)

External: N2YO · Heavens-Above · Gunter

§ Orbital elements

Epoch: 2026-09-19T21:04:41.651904Z

Period
94.78 min
Inclination
55.0078°
Eccentricity
0.0010666
Mean motion
15.19303097 rev/d
Perigee alt
500.6 km
Apogee alt
515.3 km
Semi-major
6,886.1 km
B*
1.0463e-4
RAAN
327.1985°
Arg perigee
196.9646°
Mean anomaly
163.1018°
Rev number
1,718

§ Raw data

GUOWANG TEST OBJECT D1 69323U 26120D   26262.87825986  .00001919  00000+0  10463-3 0  99912 69323  55.0078 327.1985 0010666 196.9646 163.1018 15.19303097 17180

JSON: /api/v1/satellites/69323 · /tle

For live sub-satellite position, see the globe view (requires WebGL).

§ Visibility from observer

Set your observer location to see the next 7 days of passes ≥ 10°. The values pass through the URL so the page stays shareable.

No JS? Fill the form by hand. The geolocation button needs JavaScript.